Theta_e
335 341 342 339 339 339 336 334 332 333 331 329 328 326 326 323 324 327 337 355 361 360 361 363 363 364 363 362 361 359 357 357 356 356 357 358 354 350 350 350 348 349 348 346 345 345 346 347 348 349 351 351 352 352 352 353 354 354 354 354 355 355 355 354 352 351 350 351 351 350 351 351 351 351 352 352 352 352 354 353 353 352 352 352 352 352
334 340 342 340 338 336 335 332 331 332 330 330 328 326 325 323 326 326 328 348 360 358 359 361 362 362 363 361 361 359 358 358 356 356 357 358 356 352 350 350 349 349 347 346 346 344 344 347 347 348 350 351 351 351 351 352 353 353 353 354 355 356 355 354 352 352 351 351 350 351 352 352 352 352 353 353 353 353 354 354 354 353 352 353 352 351
336 338 338 338 336 332 332 331 330 330 331 331 327 325 324 324 326 327 331 348 356 357 359 359 360 359 362 363 361 360 359 357 355 355 356 356 355 353 352 350 350 349 349 348 347 345 344 346 347 348 349 351 350 350 351 352 352 353 353 353 354 355 355 354 354 353 350 350 351 351 352 352 352 353 353 353 354 354 354 354 353 352 352 353 353 352
335 337 336 335 332 331 333 330 330 330 328 330 328 323 322 323 324 321 330 351 356 355 357 362 365 363 365 364 360 359 358 357 355 355 356 356 354 353 352 351 351 350 350 349 347 346 344 344 346 348 348 349 350 350 351 351 352 352 352 352 352 354 355 354 354 352 350 350 351 351 351 352 352 354 354 354 355 354 353 354 354 352 351 352 354 353
335 336 333 331 329 330 332 331 330 329 328 329 328 326 323 324 326 321 328 350 355 352 359 366 366 364 366 363 361 360 358 357 358 357 357 356 354 352 352 352 351 351 350 349 348 346 344 344 345 347 348 348 349 349 349 350 351 352 352 352 351 352 353 353 352 351 350 349 350 351 351 351 351 353 354 355 356 355 354 354 355 352 352 352 354 355
335 333 329 329 330 329 329 330 330 328 327 327 328 329 326 326 328 323 328 345 348 347 355 358 354 355 359 358 363 362 358 359 357 356 358 355 353 353 352 352 350 351 350 348 348 347 345 343 344 346 347 348 348 348 348 349 350 351 352 352 351 350 350 350 350 350 350 350 351 352 351 350 351 352 353 354 355 356 355 355 354 352 352 353 354 355
332 330 328 329 329 329 328 329 328 328 325 323 328 330 327 327 326 322 323 329 335 343 354 351 348 348 348 349 360 361 359 360 357 357 356 354 354 354 353 351 349 350 349 347 347 346 344 343 344 345 346 347 348 348 348 348 349 351 351 352 351 350 348 348 350 350 351 352 351 351 350 349 351 352 352 352 354 354 354 354 354 353 352 353 354 354
325 325 328 329 327 327 328 327 327 329 324 323 329 328 326 327 323 323 321 318 324 336 346 350 350 349 345 346 357 360 359 360 358 357 356 355 355 354 353 352 349 349 348 346 346 345 345 343 343 345 345 346 347 347 347 347 348 350 351 351 351 350 348 348 351 351 352 352 351 351 350 349 350 352 352 352 352 353 353 354 355 354 354 354 353 354
321 319 323 325 324 326 328 328 328 327 325 326 328 325 325 324 324 325 321 318 323 328 336 346 347 348 349 351 357 360 360 360 360 358 357 355 354 354 354 352 350 349 347 346 345 345 345 343 343 344 345 346 346 346 346 346 348 349 351 351 351 350 349 350 352 351 351 351 351 351 350 349 350 352 351 351 352 353 353 354 355 355 354 356 354 354
318 318 319 318 320 324 326 329 328 325 327 327 325 325 324 324 326 327 322 319 320 323 333 341 341 343 347 350 354 358 357 359 361 359 357 356 355 354 354 353 351 350 348 347 344 345 344 343 344 343 344 345 345 346 346 346 348 349 350 350 351 350 350 351 352 352 352 351 350 351 350 349 350 351 350 352 353 353 353 353 353 353 353 355 354 353
317 319 320 317 318 321 322 325 324 323 326 325 325 324 324 328 328 332 338 327 315 318 330 336 338 341 341 343 348 355 356 358 361 359 357 357 355 354 354 353 352 350 349 347 345 344 344 343 344 342 343 344 344 344 344 345 347 349 350 350 351 351 350 351 352 352 351 351 351 351 349 349 350 350 350 351 352 352 352 352 352 352 352 353 354 353
318 319 318 317 318 317 318 323 321 319 321 322 328 328 322 326 327 327 334 323 312 321 330 333 337 337 336 339 346 355 357 356 358 358 358 358 356 354 354 353 352 351 350 349 346 344 344 344 343 342 342 344 343 344 344 345 347 349 350 350 351 350 351 351 351 351 351 350 351 351 350 350 350 350 349 349 350 351 351 351 351 351 351 352 353 353
318 317 316 316 317 316 316 321 318 317 320 318 327 332 322 323 323 320 325 321 317 324 325 325 331 333 335 337 343 353 355 354 356 356 356 357 356 355 354 354 353 352 350 349 349 346 345 344 343 341 342 343 342 342 343 344 346 348 350 350 350 350 350 351 351 351 350 350 350 351 350 349 349 350 349 349 350 349 349 349 350 351 351 351 353 353
315 316 316 316 316 316 315 316 314 316 319 316 321 327 322 322 321 321 325 323 319 321 318 319 323 325 324 328 337 344 346 352 353 354 355 355 355 356 354 353 353 353 351 350 350 348 346 345 343 342 342 342 342 342 343 344 345 348 349 350 350 350 350 351 351 351 351 350 350 350 350 349 349 349 349 348 349 349 348 349 350 350 349 349 349 349
315 315 316 315 315 315 315 314 313 314 315 317 322 323 322 325 323 322 325 322 318 320 319 316 317 317 316 323 334 331 336 351 351 351 355 353 356 355 354 355 353 354 352 351 351 349 347 345 343 343 342 342 342 341 343 344 345 347 349 350 350 350 350 350 351 351 351 350 350 350 350 349 349 349 348 348 347 348 348 348 349 349 349 349 347 346
316 316 315 315 314 314 315 314 315 316 315 318 324 321 319 322 322 321 325 325 322 319 319 317 318 324 323 326 335 328 330 344 348 352 355 353 356 355 354 355 353 353 353 351 351 350 347 345 343 344 342 342 342 341 343 343 345 347 348 349 350 349 350 350 351 351 351 350 349 349 349 349 348 348 348 347 347 346 346 347 349 348 348 348 347 347
317 318 314 315 316 314 314 315 315 316 317 321 321 319 317 317 318 319 322 328 323 316 321 321 316 323 326 322 333 340 338 340 344 350 352 352 356 356 355 356 353 354 353 351 351 350 349 346 344 344 343 343 342 341 342 342 344 346 347 348 349 349 350 350 351 351 350 350 349 349 349 348 348 348 347 347 345 345 345 345 347 347 346 346 347 348
315 318 315 314 316 315 313 315 316 314 315 318 317 317 320 320 322 322 320 323 322 318 323 321 315 322 327 323 334 347 346 344 345 344 345 350 355 356 356 356 354 353 352 352 351 350 351 347 345 345 344 343 343 341 342 342 343 346 347 348 348 349 350 350 350 350 351 350 349 349 348 348 348 347 346 345 344 343 344 344 346 346 344 343 343 346
313 316 317 314 314 314 314 315 317 315 313 316 316 317 322 323 323 323 318 318 320 320 322 321 319 326 332 332 337 345 347 348 347 346 345 346 351 356 356 354 355 354 352 353 352 351 350 348 346 346 344 343 344 342 342 342 343 345 346 347 348 349 350 349 350 350 350 350 349 348 347 347 348 347 346 345 344 343 343 343 344 343 342 341 341 343
316 316 318 316 314 314 316 315 316 315 313 315 316 316 320 322 320 320 320 318 319 321 322 323 324 329 339 339 333 339 349 348 347 350 348 346 346 352 356 355 354 354 353 352 352 351 351 349 348 346 345 345 344 343 342 342 343 344 345 347 347 348 349 349 350 350 349 350 349 348 347 346 346 347 346 345 345 344 342 342 343 342 341 342 342 342
320 318 316 317 315 315 317 315 314 314 314 315 316 314 315 319 320 323 323 318 318 324 326 325 324 330 340 335 327 338 348 345 345 348 349 348 346 346 352 355 354 353 354 351 351 351 350 349 349 347 347 346 344 344 343 343 342 343 345 347 347 348 348 349 349 349 349 349 349 348 346 345 345 345 346 345 345 344 342 342 342 342 341 343 343 343
319 318 318 318 315 314 316 314 312 314 314 314 315 314 313 314 318 326 329 322 320 322 322 323 323 329 334 325 327 342 345 342 343 343 345 350 348 344 348 354 353 353 353 351 351 351 350 349 349 348 347 346 345 345 344 343 344 343 345 346 347 348 347 349 349 349 349 348 348 347 347 346 345 344 344 344 344 344 343 342 342 341 342 343 344 343
319 318 317 317 315 312 312 313 312 314 315 314 313 312 312 313 314 320 323 323 321 321 324 326 325 330 333 325 331 344 342 339 341 339 341 347 348 347 346 351 354 353 352 351 349 350 350 349 348 348 348 347 346 346 345 344 344 344 344 345 346 347 347 348 348 349 349 349 348 347 346 346 345 343 343 342 342 344 344 343 342 341 342 343 343 342
319 317 315 317 319 316 313 315 314 311 312 313 311 311 312 312 312 313 315 319 323 324 328 330 330 333 333 329 335 344 341 339 339 337 338 342 346 349 347 350 353 351 351 351 350 350 350 348 349 348 348 347 346 347 346 346 345 344 345 345 346 347 347 348 349 349 349 349 348 347 346 346 346 345 344 342 341 342 343 344 344 343 343 342 342 341
315 318 321 322 323 321 319 319 316 311 310 311 310 311 311 311 311 312 315 322 329 328 323 325 332 335 328 330 340 343 341 340 339 336 336 338 341 346 349 355 358 355 353 349 349 351 350 350 351 349 349 348 347 347 347 346 347 346 345 346 346 347 348 347 348 349 350 350 350 348 348 346 346 345 345 344 342 341 342 343 344 344 344 343 342 340
314 320 327 326 322 322 322 319 316 313 312 311 311 310 310 310 311 312 316 323 331 330 320 320 330 330 324 334 343 343 341 340 338 335 335 335 336 339 344 349 354 357 358 355 353 352 351 351 352 351 349 349 348 348 348 347 347 347 348 347 347 347 348 348 348 349 349 350 350 350 349 348 347 346 345 344 344 341 341 341 341 342 343 343 343 341
320 321 327 329 326 323 323 320 317 315 312 312 312 310 310 310 310 312 316 319 325 325 321 327 332 323 323 338 343 341 342 340 338 335 334 333 334 335 338 341 344 346 350 354 359 360 359 357 356 354 349 348 349 348 348 349 348 348 349 349 349 349 349 349 349 349 350 350 351 351 350 349 348 348 346 345 345 343 342 341 341 341 341 341 342 342
324 318 319 324 324 321 319 317 314 313 312 311 311 311 311 311 310 312 315 316 319 320 321 334 336 321 323 341 344 340 342 340 337 336 333 333 333 333 334 336 337 340 341 343 346 351 357 361 363 359 350 347 350 349 349 350 348 349 350 350 350 351 351 351 350 350 351 351 351 351 351 351 350 349 348 347 346 345 344 343 342 341 341 341 341 342
323 318 314 315 317 316 314 313 312 311 311 311 312 313 312 311 311 311 313 314 316 317 320 326 326 320 329 343 341 338 340 339 337 336 333 332 333 332 333 333 333 335 337 337 338 341 345 349 357 360 353 349 350 350 350 350 350 350 351 350 352 352 351 353 352 351 352 351 352 352 352 351 351 350 349 349 348 347 346 345 344 343 342 341 341 341
322 322 317 313 316 317 314 313 312 312 312 312 313 313 311 311 311 311 313 314 313 317 320 319 321 327 336 342 339 335 336 336 336 335 333 333 333 332 333 333 333 333 333 335 335 336 338 341 346 349 349 349 351 352 351 352 351 351 351 351 352 353 353 354 353 353 353 353 352 352 352 352 352 351 351 350 349 348 347 346 346 344 343 343 342 342
316 318 319 318 318 318 316 314 313 313 313 312 313 313 312 313 314 314 317 319 320 323 323 322 332 341 340 338 338 335 333 334 335 334 333 333 332 332 332 332 332 332 332 333 334 334 335 337 340 343 344 345 347 349 352 354 353 352 352 352 352 353 355 355 355 355 354 354 354 353 353 353 352 353 352 351 350 349 348 347 347 345 345 344 343 343
315 317 322 322 319 318 316 314 314 315 313 313 314 315 315 318 318 319 323 327 330 332 332 333 341 343 336 334 336 334 332 333 333 333 333 332 332 332 332 332 333 332 331 331 332 333 333 334 336 340 343 343 344 346 349 351 354 353 353 353 353 354 356 355 356 356 356 355 355 354 355 354 354 354 353 352 351 350 350 349 348 347 346 345 344 344
320 319 320 319 318 320 318 314 316 318 316 316 314 312 317 322 322 326 331 331 330 333 335 338 337 333 330 330 333 333 332 333 333 332 332 332 331 331 332 332 333 332 332 331 331 331 331 332 334 337 340 341 342 345 346 347 351 353 354 355 355 355 356 357 358 357 356 357 356 356 356 355 355 355 353 353 353 351 350 349 348 349 348 347 346 345
321 320 321 320 318 321 322 317 319 320 317 317 315 313 320 323 321 327 332 330 328 329 331 332 330 327 327 327 329 331 332 333 333 331 331 331 331 330 330 331 332 332 332 331 331 331 331 332 334 335 337 339 341 344 345 344 347 350 353 355 356 356 357 358 358 359 359 358 357 357 357 356 356 356 355 355 354 352 352 351 350 350 348 347 347 347
321 320 322 322 318 320 324 321 319 319 317 316 315 316 321 321 319 323 328 328 328 327 327 328 328 326 326 324 325 328 329 331 331 330 330 330 329 329 329 329 330 330 331 331 331 331 331 333 334 334 335 337 339 341 342 343 345 348 351 354 354 355 356 357 359 360 360 360 359 358 358 358 357 357 357 356 356 354 353 352 351 351 350 350 349 348
321 320 320 320 318 318 320 318 316 316 316 318 320 319 319 320 321 325 329 329 326 325 326 327 326 326 324 323 323 324 326 329 328 329 330 329 328 328 327 327 328 328 329 331 330 330 331 332 332 333 334 335 336 337 339 340 343 346 349 352 354 355 356 355 356 357 359 360 360 360 360 360 359 358 358 357 357 356 355 354 353 352 351 351 350 349
318 321 318 315 315 316 317 318 317 315 315 320 324 322 319 319 321 323 327 329 325 322 323 324 325 326 324 323 323 322 325 328 326 327 329 329 327 327 326 326 327 326 327 328 328 329 329 330 331 332 333 334 335 335 336 338 341 344 347 350 353 354 355 354 355 355 356 357 358 359 359 359 360 360 359 359 358 357 356 356 355 354 353 352 351 350
315 319 317 314 316 319 317 317 319 317 316 319 323 321 317 316 318 320 324 328 324 320 321 323 324 325 325 324 323 322 325 329 327 325 327 329 328 327 326 326 324 324 325 326 327 328 327 328 330 330 331 333 334 334 334 336 339 342 345 348 350 353 354 355 354 354 354 355 356 357 356 356 358 359 360 360 359 358 358 357 357 356 355 354 353 352
317 319 317 315 319 320 317 317 318 317 318 320 320 319 315 314 317 319 322 326 323 318 319 322 323 325 326 325 324 323 325 328 327 324 324 328 329 327 326 327 325 323 323 325 326 327 327 327 329 329 330 332 332 332 333 335 338 341 343 345 347 351 354 355 355 356 357 357 356 357 357 357 357 359 361 361 360 360 360 358 358 357 356 355 355 353
321 321 319 316 318 319 318 319 318 317 318 319 317 316 315 315 317 318 321 324 321 316 318 321 322 324 326 325 324 324 324 326 326 323 321 324 327 327 326 326 326 324 322 323 325 326 326 327 328 328 329 330 331 332 332 334 337 340 342 344 346 349 351 351 352 355 358 360 360 359 359 358 359 361 363 363 361 361 360 359 359 358 357 356 355 355
322 322 320 318 318 319 319 319 318 318 319 317 315 316 317 316 317 319 320 320 317 316 318 320 321 322 324 324 324 324 323 323 323 322 320 321 325 327 326 324 324 324 322 323 323 324 325 326 326 327 329 329 330 330 330 332 336 338 340 341 342 342 342 342 345 349 353 357 359 360 361 361 362 362 363 363 362 362 361 360 359 358 358 357 357 355
321 321 318 317 318 318 319 318 318 319 317 314 315 318 318 318 319 320 318 316 315 315 316 316 317 318 319 321 321 321 321 321 321 321 320 321 325 327 325 323 324 324 322 322 322 322 324 325 325 327 328 329 329 328 328 330 333 336 337 338 337 337 337 338 341 344 347 352 355 358 360 363 364 363 364 364 363 363 362 361 360 360 359 358 357 356
319 319 319 319 319 317 317 317 318 318 315 313 315 318 318 319 320 317 314 313 313 313 313 313 313 313 314 316 316 315 316 317 319 321 322 322 324 325 323 322 323 324 323 322 322 322 323 324 324 326 328 328 327 326 326 329 331 333 335 335 333 334 334 336 339 340 343 348 351 355 359 362 364 364 364 365 364 364 363 362 361 361 359 358 358 357
318 320 322 322 320 318 318 319 320 319 315 312 314 316 315 315 315 313 312 312 311 310 311 311 311 311 311 312 313 313 314 314 317 320 322 323 324 324 323 323 323 324 323 323 322 322 322 322 323 325 327 328 326 325 325 328 329 331 332 332 331 332 333 335 337 339 342 347 350 353 357 361 364 365 364 365 365 364 364 363 362 361 360 359 358 358
318 319 321 322 319 317 319 319 317 317 315 312 313 314 312 312 312 311 311 310 310 310 310 310 310 310 310 311 312 312 313 314 315 317 320 322 323 323 323 323 323 323 323 322 322 322 322 322 323 325 326 327 326 324 325 327 328 329 330 330 330 331 332 334 336 338 341 345 350 353 357 360 364 365 365 365 366 365 364 363 362 361 360 360 359 358
317 317 319 321 318 316 315 314 313 314 315 312 311 311 311 312 312 310 309 310 309 309 309 309 309 309 310 310 312 313 313 314 314 315 316 319 322 322 320 321 323 323 323 323 323 323 322 322 323 325 326 327 325 323 324 326 327 328 329 328 329 330 332 333 336 338 341 344 348 352 356 359 363 364 365 365 365 365 365 364 363 362 361 361 360 359
315 315 317 319 316 314 315 316 314 313 313 311 310 311 311 311 310 309 309 310 309 308 309 308 309 309 310 311 312 313 313 313 314 314 315 317 321 322 319 319 322 323 323 323 323 323 322 322 323 325 327 326 324 323 324 324 326 327 328 328 328 330 332 334 336 338 341 343 347 351 356 360 362 364 365 365 365 365 364 364 363 362 361 361 360 360
315 314 316 316 315 314 315 316 313 311 311 311 312 313 312 311 310 309 309 309 308 308 308 308 309 309 310 311 312 312 313 313 314 314 315 316 319 320 317 318 321 322 323 324 323 323 323 322 323 325 326 325 322 322 323 324 325 326 327 327 328 330 332 333 336 338 340 342 347 352 356 359 361 362 364 365 365 365 365 364 363 363 362 362 361 361
314 313 315 315 314 314 314 313 313 312 312 312 312 313 312 311 309 309 309 308 308 308 308 308 309 310 310 311 311 312 313 313 313 314 314 315 317 317 317 318 320 321 322 323 324 324 322 321 323 326 325 323 321 321 323 323 324 325 326 326 328 330 331 333 336 338 340 344 348 353 355 355 357 361 364 365 365 365 365 365 364 364 363 363 362 362
313 315 315 314 315 315 314 314 315 314 313 313 312 311 311 310 309 309 309 308 308 309 309 309 310 310 311 311 312 312 313 313 314 314 314 315 315 316 317 319 319 320 321 322 324 324 322 321 325 327 325 322 320 321 323 323 323 324 325 325 327 329 330 333 336 339 341 343 347 350 351 351 355 359 362 364 365 365 366 366 365 365 364 364 363 363
315 317 316 315 317 316 314 315 315 314 314 313 311 310 311 310 309 309 309 309 309 309 309 309 310 311 312 312 313 313 313 313 314 314 314 314 315 316 318 319 319 319 320 321 323 324 322 322 325 327 324 321 320 322 323 323 322 323 323 324 326 328 330 332 334 337 338 339 342 345 347 350 354 358 361 364 365 366 366 365 365 365 365 364 364 364
Wind_Speed
3 2 3 4 5 4 4 4 6 6 4 2 3 3 4 4 3 4 3 6 12 10 9 13 11 9 9 11 12 12 12 12 13 14 11 11 13 15 15 16 16 15 15 19 25 29 31 32 33 33 32 33 32 32 34 33 33 33 31 31 30 28 28 28 28 27 26 26 25 24 23 22 21 20 20 20 19 19 18 17 15 16 16 16 15 14
2 4 5 6 6 6 5 5 5 4 4 4 3 4 4 3 5 5 4 5 12 9 6 9 9 7 8 11 12 13 14 15 16 17 15 13 13 12 15 17 17 14 13 17 20 25 30 31 33 33 32 33 32 32 34 35 34 34 33 33 32 30 30 30 30 28 28 28 27 26 24 23 21 21 21 21 20 19 18 17 16 16 16 16 15 14
1 4 7 8 6 5 5 4 4 5 5 4 3 3 3 3 4 5 4 1 8 7 3 3 5 4 4 6 9 13 15 14 16 18 16 15 15 13 14 16 16 15 14 15 17 21 27 30 32 32 31 33 34 33 35 36 36 34 33 34 33 31 31 32 31 30 30 29 28 26 24 23 22 22 22 21 19 17 17 17 16 16 16 15 14 14
2 5 8 8 4 3 5 5 4 4 4 4 4 3 2 1 1 3 3 4 4 3 0 5 4 1 1 1 6 11 11 9 12 14 12 13 15 15 14 15 16 17 16 17 17 18 23 28 31 31 31 33 34 34 35 36 36 35 35 35 34 34 33 33 32 31 31 29 27 24 22 22 22 21 22 21 19 18 17 18 17 17 17 16 14 13
6 8 6 5 4 4 5 6 4 3 4 4 5 6 3 2 4 5 1 2 3 3 2 6 4 3 3 5 6 7 7 7 9 12 10 11 14 12 12 14 16 17 17 17 18 17 20 25 29 31 32 33 33 33 35 37 37 36 36 36 36 36 35 34 33 32 31 29 27 24 21 20 19 18 20 22 22 21 21 20 19 19 18 17 16 14
8 8 3 4 6 6 5 7 5 5 3 5 6 8 6 5 8 7 2 2 2 1 3 4 3 4 3 7 7 5 8 9 8 12 13 12 13 12 11 14 15 16 17 17 18 18 19 23 28 31 33 33 33 34 36 38 38 37 37 37 36 36 36 35 33 32 32 30 28 26 23 21 20 19 22 25 25 25 24 22 20 19 19 19 17 16
5 4 3 5 7 6 6 7 5 6 3 5 5 7 8 8 9 7 4 3 1 3 4 5 4 3 2 6 10 10 11 12 10 13 15 13 14 14 12 13 15 15 16 16 17 18 19 23 27 29 32 34 34 35 37 38 38 38 37 37 37 37 37 36 34 33 32 31 30 29 27 26 25 23 24 27 28 27 25 23 21 20 20 20 18 17
2 2 1 4 4 4 5 6 6 7 5 6 5 6 7 8 8 7 6 5 4 1 1 4 3 1 2 5 9 12 11 12 13 14 16 15 15 16 14 14 15 16 16 15 17 18 19 23 27 30 33 36 36 37 37 37 38 38 38 39 38 37 37 37 36 34 33 33 32 31 29 28 28 27 26 27 28 27 25 24 22 21 21 20 18 17
1 1 1 3 3 4 4 7 9 8 6 9 7 7 6 7 8 6 6 5 3 1 1 5 2 2 4 3 6 11 11 14 16 17 17 17 17 17 16 16 16 16 16 16 17 18 19 24 30 33 35 36 37 37 38 38 39 38 38 39 38 38 38 38 37 35 35 34 34 32 31 29 28 27 26 26 26 26 25 24 23 22 22 21 19 18
1 3 4 3 3 4 5 9 8 8 8 10 4 4 3 4 5 4 5 4 2 2 4 7 6 3 4 3 6 9 10 14 17 17 17 17 17 17 16 17 16 15 15 15 16 18 21 27 32 34 35 36 36 37 39 39 39 38 38 38 39 39 38 38 38 37 36 35 34 34 33 31 29 26 25 26 26 26 25 24 23 22 22 21 20 19
3 4 2 3 0 5 6 6 4 6 9 7 1 0 0 0 1 1 2 2 3 1 6 8 12 8 3 3 5 9 13 17 15 13 14 16 17 18 17 17 17 15 14 15 15 16 22 28 32 33 34 35 36 37 38 37 38 39 39 39 40 40 39 38 38 38 38 36 35 35 35 33 31 27 26 27 27 26 25 24 24 22 21 21 20 19
5 5 2 1 4 4 3 3 3 3 2 0 1 1 1 2 2 3 4 2 3 4 7 7 10 8 4 5 6 11 16 17 15 13 16 19 19 18 17 16 16 16 14 15 14 15 18 21 25 30 32 34 35 35 36 37 37 38 39 40 39 39 38 38 39 39 39 38 36 36 36 35 33 30 28 29 29 28 27 26 25 23 21 21 20 20
3 3 3 3 5 10 6 3 5 6 6 5 3 4 3 1 2 1 2 1 3 5 6 5 7 5 5 6 8 13 16 14 14 14 17 19 19 17 16 16 15 14 15 15 14 14 15 15 19 26 30 32 34 35 37 37 37 37 39 40 39 39 39 39 40 40 40 40 39 38 37 37 35 32 30 31 31 31 30 28 27 26 24 23 23 22
1 2 7 7 5 7 5 3 4 4 5 5 1 4 3 2 2 2 3 0 2 4 4 3 5 3 4 5 10 14 14 14 14 15 16 18 19 19 17 16 14 14 15 15 14 14 14 15 19 26 30 32 33 36 38 38 38 38 38 39 40 40 40 40 40 41 41 41 41 39 39 38 36 34 32 32 32 32 31 30 30 28 26 25 25 24
1 1 6 6 3 5 5 2 2 4 3 4 3 3 2 4 4 3 3 2 2 3 3 1 2 4 4 4 8 9 10 11 12 13 13 14 15 16 14 14 14 14 14 14 14 15 15 17 22 26 29 32 34 36 38 38 39 39 38 40 41 41 41 40 40 41 41 41 41 40 40 39 38 37 34 33 33 34 33 32 31 30 28 27 26 25
2 2 5 4 1 5 8 5 4 2 2 4 1 2 1 1 3 2 3 5 4 1 1 0 2 4 5 2 7 9 7 5 7 9 11 12 12 12 12 14 15 15 15 14 15 16 16 20 25 27 29 32 34 36 38 39 40 40 40 41 42 42 42 41 41 41 42 42 41 40 40 40 40 39 36 34 34 34 34 33 33 32 30 28 27 25
2 2 5 5 3 7 7 4 5 7 1 3 4 2 5 4 4 2 3 1 4 3 1 2 2 4 3 2 11 17 14 11 8 5 8 11 13 14 14 15 16 16 16 16 16 17 17 19 24 28 30 32 34 36 38 40 42 42 41 41 42 41 41 42 42 42 42 42 40 40 41 40 40 40 39 37 35 35 35 34 34 33 31 29 28 27
1 3 4 5 4 7 7 2 7 10 4 1 2 4 7 2 3 2 1 2 4 3 3 2 3 3 5 2 9 18 18 16 14 10 7 8 12 16 16 17 18 18 18 18 18 17 16 18 23 28 31 34 37 38 40 41 42 42 42 43 42 41 41 42 43 42 42 42 41 41 41 41 41 41 41 39 37 36 35 35 36 35 32 31 30 29
1 2 4 5 4 6 6 5 4 7 7 3 1 4 4 3 2 3 1 1 1 2 2 3 2 3 4 3 9 15 16 17 16 13 11 8 10 15 16 18 20 19 17 17 16 16 15 17 22 28 31 34 37 38 39 40 40 41 42 43 44 44 44 44 43 42 42 42 42 42 42 42 43 42 42 40 38 36 35 36 37 36 34 32 31 30
2 2 3 5 7 5 4 6 4 6 8 6 3 5 4 2 1 2 0 2 1 2 2 2 2 2 2 4 8 11 14 17 17 16 13 10 11 14 15 16 18 17 16 16 16 17 17 18 24 30 31 33 36 37 37 38 39 40 41 41 42 43 43 43 43 42 42 41 41 41 42 42 42 42 41 40 39 37 37 38 38 37 35 33 32 31
2 3 2 6 7 5 3 3 3 3 5 7 6 7 6 4 1 1 1 1 1 2 1 0 2 2 4 3 7 10 14 16 17 17 15 13 11 14 15 14 16 17 17 18 17 17 18 19 24 30 32 33 34 35 36 37 38 40 40 40 41 41 41 41 42 42 42 42 41 40 40 41 41 40 39 39 39 38 39 39 39 38 37 35 34 33
2 2 1 4 5 3 2 4 4 3 1 3 5 5 5 5 3 2 2 3 2 2 0 1 1 4 2 4 6 8 12 14 16 17 16 17 15 12 16 14 14 16 17 18 18 18 17 18 22 28 30 30 32 33 35 36 37 38 38 39 40 40 40 41 41 41 41 40 40 40 41 41 41 41 39 38 38 39 39 39 40 40 38 37 36 34
1 2 2 2 2 3 6 7 4 2 2 4 5 5 4 4 4 3 1 3 3 2 2 1 2 5 1 5 6 6 10 12 15 17 16 18 18 9 13 15 14 14 16 16 17 17 16 17 22 26 27 29 30 32 35 36 36 37 39 39 39 39 40 40 41 41 40 39 39 41 40 40 40 40 39 38 38 38 39 39 40 39 38 38 37 35
2 3 3 3 3 4 5 5 4 7 6 4 4 5 5 4 3 1 3 2 2 2 3 3 1 4 3 6 7 7 10 12 14 17 18 17 19 15 4 11 11 11 13 13 13 14 13 16 20 21 23 26 29 31 34 35 35 37 38 38 38 39 40 40 39 39 39 39 39 40 39 39 39 38 38 39 39 39 39 39 39 38 38 38 37 36
2 1 3 3 4 5 6 6 5 5 6 3 3 5 5 5 6 4 1 1 1 1 5 3 2 5 5 7 9 10 11 13 14 16 18 17 19 19 12 5 3 2 4 7 9 9 11 13 15 16 19 24 27 29 32 34 35 35 36 38 38 38 38 39 38 38 39 39 39 38 39 39 38 38 38 40 40 40 40 39 38 38 38 38 37 36
2 2 2 4 3 1 1 2 3 4 5 3 4 7 7 6 7 5 3 3 1 2 5 1 4 6 9 9 12 13 12 14 14 15 17 18 19 20 18 16 13 10 5 1 4 6 8 9 10 12 17 22 25 28 30 32 34 34 35 37 37 37 37 37 38 38 38 38 38 38 38 39 39 39 40 41 41 41 41 39 38 37 37 37 37 36
3 3 3 5 5 3 4 4 4 3 3 5 8 10 9 7 6 3 3 2 1 2 5 3 3 7 12 11 13 14 12 12 13 15 16 16 19 19 18 17 17 15 14 10 6 2 2 6 8 9 13 18 23 26 28 30 32 33 33 35 36 36 36 37 37 37 37 38 37 37 38 39 40 40 40 40 41 41 40 40 39 38 37 37 36 36
4 3 3 5 4 4 5 5 5 3 2 5 8 10 9 9 6 3 1 3 2 2 5 5 3 8 10 9 11 12 12 11 11 13 14 13 15 16 17 19 20 20 18 17 16 13 9 3 3 7 12 17 21 23 24 27 29 31 32 33 35 35 36 37 37 37 37 37 37 38 39 40 39 40 40 40 40 39 39 39 39 39 38 37 36 36
5 2 2 4 1 2 3 3 2 1 2 4 6 8 9 9 7 4 4 6 3 2 5 8 7 8 7 7 9 9 10 10 10 10 10 12 13 15 17 19 21 21 20 19 18 17 15 13 8 2 4 11 16 20 22 24 26 29 30 32 34 36 36 37 37 37 38 37 38 39 39 39 38 39 39 39 39 39 40 39 39 39 38 37 37 37
4 1 2 4 3 4 4 4 3 3 3 4 6 7 8 8 8 5 4 6 5 5 8 9 9 7 4 5 7 7 8 8 7 8 10 12 14 15 16 17 17 19 19 19 18 17 16 15 13 11 10 7 3 6 14 20 25 29 30 31 33 35 37 37 37 38 37 38 39 39 39 38 38 38 38 39 39 40 40 39 39 38 38 38 38 38
3 2 2 4 3 4 5 5 6 5 3 3 5 6 7 8 8 5 4 5 4 4 7 7 4 3 4 6 6 7 8 8 8 10 11 11 13 14 15 15 15 17 17 17 17 16 16 16 15 13 13 15 15 11 4 5 15 24 28 30 32 35 36 36 37 37 38 38 39 38 37 37 37 37 38 39 39 39 39 39 38 37 37 38 38 38
3 1 2 4 3 3 4 4 6 7 5 2 2 5 7 7 6 4 3 5 6 6 8 5 3 3 7 8 6 5 8 10 11 11 10 10 11 12 13 13 13 14 16 17 16 16 16 17 16 14 15 17 18 16 15 10 0 11 19 25 29 32 34 35 36 36 37 38 37 37 37 37 37 37 37 38 39 39 39 38 37 37 37 37 37 37
3 2 1 3 2 3 5 4 5 4 5 3 2 4 4 4 4 4 2 7 7 5 4 4 4 5 7 9 7 6 7 9 9 9 9 8 9 10 11 11 12 12 12 13 15 15 15 14 15 16 17 19 19 17 16 14 9 2 6 14 21 25 29 32 34 35 36 36 36 36 37 37 37 37 37 38 38 38 37 36 37 37 37 37 37 37
3 4 2 3 2 3 5 4 3 3 2 3 4 2 2 2 5 4 2 5 8 5 4 4 6 7 9 9 8 6 5 6 6 6 6 7 7 9 10 11 11 11 11 11 13 13 12 13 16 18 19 20 20 17 16 15 12 8 2 7 13 18 21 23 26 29 32 34 36 37 37 37 37 37 38 38 38 37 37 36 37 37 38 37 36 36
4 4 2 2 2 2 3 3 4 0 4 5 2 2 2 2 4 4 1 3 7 8 8 7 8 9 9 8 8 6 3 2 4 5 6 7 7 7 9 10 11 12 11 10 12 12 13 15 18 20 22 22 21 19 17 17 15 11 5 4 9 14 17 19 20 21 23 28 33 35 37 38 38 37 37 37 37 37 37 37 37 37 37 36 36 37
5 4 2 2 2 0 1 2 1 3 5 4 2 3 3 2 4 5 3 3 6 8 8 8 8 8 8 7 9 8 3 2 2 5 6 7 7 7 9 9 10 10 10 10 11 13 16 17 18 20 23 24 21 19 19 19 17 14 9 5 5 10 15 18 20 20 20 22 25 29 33 35 36 36 36 36 36 36 36 37 37 38 37 36 36 37
6 4 2 2 2 1 1 2 2 2 4 4 3 3 3 3 2 2 0 1 4 5 6 7 8 9 9 7 9 10 4 2 3 7 6 7 7 7 8 8 9 10 11 12 13 16 20 20 19 20 23 24 21 20 21 20 18 14 12 10 5 3 9 14 16 17 17 16 16 21 27 30 32 34 35 35 35 35 36 37 37 38 38 36 36 36
4 3 4 3 2 2 1 2 2 3 2 3 3 3 3 5 4 2 2 2 3 5 6 6 7 9 9 8 9 10 6 2 4 6 6 6 7 6 7 8 11 13 14 15 15 17 22 24 22 21 20 20 20 21 22 22 19 15 12 12 11 7 1 5 9 12 14 14 13 15 19 25 30 32 33 34 36 36 37 38 38 39 38 38 37 37
4 2 4 4 1 2 3 2 1 1 4 5 4 5 6 6 4 2 2 1 2 6 7 6 6 8 8 8 8 7 5 4 4 5 6 6 6 5 6 6 9 13 15 15 15 17 21 24 24 24 22 20 21 24 23 21 19 14 12 13 12 10 8 6 4 5 9 13 16 17 17 21 27 31 33 35 36 37 38 39 39 39 39 38 38 38
4 3 3 3 2 3 3 2 2 2 3 3 3 6 7 6 2 1 2 2 3 8 8 6 7 8 7 8 7 4 3 3 4 5 7 8 6 5 6 5 6 10 14 16 14 15 19 22 23 25 25 24 24 25 22 20 18 14 12 13 12 11 10 10 10 9 8 8 12 17 18 17 23 31 35 35 37 38 39 39 39 38 38 37 37 37
2 1 2 3 3 4 4 3 3 3 2 1 4 6 7 5 2 1 3 3 5 9 8 6 7 8 7 7 6 3 2 4 5 6 6 7 6 6 8 8 6 7 11 14 14 15 17 19 20 22 24 24 25 23 21 19 17 14 12 12 12 12 12 13 13 12 11 11 11 12 12 12 19 30 36 38 38 38 39 39 39 38 38 37 36 36
1 1 0 2 2 2 3 2 3 3 1 1 4 6 4 2 2 3 2 2 5 7 8 7 7 7 8 8 7 6 6 7 8 7 6 6 6 6 8 9 8 8 10 12 15 17 16 15 17 20 21 24 25 24 22 19 15 13 12 12 13 14 15 15 14 14 13 14 15 15 11 9 16 27 36 38 38 38 38 38 38 38 37 37 36 36
2 1 1 2 2 1 1 1 2 3 2 0 3 4 3 0 3 2 3 4 4 6 7 7 6 6 7 8 9 10 11 10 9 8 7 6 6 7 8 10 9 10 11 12 14 17 17 15 17 19 20 21 24 25 25 21 17 14 12 12 15 17 17 16 15 16 16 16 15 16 15 14 17 24 33 37 38 39 39 38 37 37 37 36 35 35
2 3 1 2 2 1 2 3 3 3 4 1 1 0 1 2 1 1 3 4 5 5 6 6 7 6 6 8 10 12 13 12 10 9 8 7 7 7 8 10 11 11 12 11 12 14 16 17 18 19 20 20 22 25 25 23 21 18 16 17 19 19 17 17 17 16 16 16 15 15 16 17 18 22 30 36 38 38 38 38 37 37 36 36 35 33
3 4 3 2 2 2 4 5 4 3 3 2 3 3 4 4 2 0 3 4 5 4 5 6 9 9 7 8 10 10 11 12 11 10 9 9 8 7 8 10 12 12 13 12 11 11 14 17 18 19 20 20 21 23 24 23 21 19 20 23 23 21 19 18 16 15 14 13 13 14 16 18 19 21 28 34 37 38 38 37 36 35 35 35 34 33
3 3 3 1 2 3 4 5 4 3 2 2 3 4 4 4 3 2 3 4 5 5 6 6 9 11 10 8 9 9 10 11 12 12 10 9 9 8 8 10 12 13 14 14 11 10 12 16 17 18 19 20 21 22 22 22 20 19 20 23 24 22 21 19 18 17 14 12 12 14 16 18 18 19 25 32 36 38 39 38 37 36 35 34 34 33
2 2 3 1 1 1 3 4 3 3 3 4 3 3 3 3 3 3 3 4 6 7 8 8 10 12 11 10 9 9 10 11 12 12 10 9 9 9 8 9 10 11 13 14 11 10 11 13 15 17 18 19 21 22 21 20 20 20 20 20 20 22 20 18 17 17 15 13 13 13 14 16 17 18 23 30 33 35 36 36 37 36 34 33 33 32
1 3 2 3 3 3 4 6 5 4 5 4 3 3 3 3 4 4 4 5 7 8 9 11 11 10 10 10 10 10 11 11 12 12 10 8 8 9 9 10 10 9 11 13 11 9 10 10 12 14 17 19 21 23 22 20 20 21 22 20 21 22 18 14 14 15 16 15 14 13 13 15 16 16 20 28 32 33 33 34 35 35 35 36 37 34
3 4 3 3 2 3 6 6 4 4 5 3 4 4 3 3 5 6 6 6 8 9 10 12 12 11 12 13 11 11 12 13 11 11 12 9 7 9 12 13 11 9 10 12 10 9 9 9 10 11 14 18 21 22 22 22 21 22 23 23 24 23 19 15 16 15 15 15 14 13 14 16 16 14 14 23 29 32 34 35 36 37 38 40 42 41
4 4 2 2 1 4 6 5 2 1 4 4 4 4 5 4 4 6 7 8 9 10 10 11 13 14 15 17 15 12 12 13 12 11 12 11 9 12 16 16 13 10 10 10 10 9 8 8 10 10 12 16 20 20 21 21 22 23 24 24 24 22 20 19 18 16 14 14 14 14 17 19 19 17 13 17 25 28 31 34 37 39 40 40 42 45
5 6 6 5 4 6 8 6 5 3 4 5 5 5 5 4 4 6 8 9 9 10 10 11 13 14 14 16 18 16 13 13 15 14 12 12 15 17 18 17 16 13 11 10 10 9 8 8 9 10 12 15 18 18 19 20 21 23 25 25 23 22 20 19 18 15 14 15 15 17 19 20 20 19 16 14 21 25 27 29 33 37 40 40 40 42
Wind_Direction
163 204 245 227 223 220 220 197 198 225 227 231 294 299 282 292 280 236 241 201 180 192 215 201 203 208 189 182 179 176 183 187 185 188 194 192 188 184 182 184 185 186 184 180 179 179 182 185 185 186 187 188 189 190 190 191 193 194 194 195 197 200 201 202 205 205 205 204 203 206 210 214 215 216 220 221 216 210 206 204 201 194 194 198 200 197
154 209 241 234 220 221 229 218 215 240 258 265 260 279 293 280 273 268 268 211 184 192 228 206 200 213 197 187 179 171 182 191 188 187 191 195 197 193 187 186 187 186 182 179 180 180 181 184 185 186 187 187 188 189 190 191 193 195 196 197 198 199 199 200 204 205 204 202 200 203 207 211 212 211 212 211 207 208 206 204 202 197 193 195 198 198
217 236 248 245 229 225 250 244 230 245 257 261 255 270 279 272 287 294 325 329 181 192 262 184 174 227 212 191 189 182 187 194 191 189 189 190 195 200 194 188 187 184 182 184 184 181 181 183 184 185 186 187 188 189 191 192 193 194 196 198 199 199 199 200 204 206 205 202 200 202 206 207 206 206 207 207 206 208 208 204 203 201 197 194 195 197
223 249 242 245 243 230 260 266 249 262 272 252 246 250 231 192 310 292 345 32 111 146 119 106 105 328 80 184 224 201 198 199 194 195 193 192 199 204 199 189 187 186 185 186 186 184 182 182 184 185 186 188 189 189 190 191 191 193 196 198 199 201 201 201 204 207 205 203 204 206 208 206 204 205 208 209 210 211 210 206 204 204 202 200 197 198
235 248 234 232 230 216 247 273 259 244 270 257 237 234 209 166 226 236 250 30 80 93 119 98 58 324 142 172 224 212 213 215 196 196 200 204 208 212 207 195 191 189 188 186 186 187 183 182 184 185 187 188 188 189 190 191 191 192 195 197 199 201 203 203 204 206 205 205 206 206 206 203 201 204 206 208 209 210 212 209 206 205 205 205 201 201
245 245 208 208 223 207 223 259 242 196 241 277 245 226 208 202 235 233 147 90 69 271 235 119 77 291 185 172 195 192 210 218 202 198 205 206 208 216 211 198 196 193 190 189 187 187 184 183 184 186 187 188 189 191 192 192 192 193 195 196 199 200 202 204 204 204 203 204 205 203 201 197 196 200 203 206 209 210 212 212 209 207 207 207 204 204
254 247 174 207 226 205 213 247 235 179 193 273 242 209 200 206 236 239 168 133 212 247 219 175 175 256 236 196 192 183 197 210 207 205 207 205 205 212 209 198 197 194 193 192 189 188 185 183 183 186 188 188 190 192 192 192 193 193 194 196 197 199 200 201 202 203 202 203 204 205 204 200 199 202 205 208 211 213 214 214 213 210 209 209 207 207
254 343 160 198 214 206 214 246 232 174 166 251 221 158 170 196 221 226 181 179 225 234 159 204 180 101 261 228 187 175 187 206 213 212 209 207 205 207 207 201 197 194 193 192 190 190 188 184 185 187 188 190 191 191 191 192 192 193 194 195 197 198 198 198 199 201 202 202 204 206 207 204 203 207 207 207 210 212 213 213 213 212 210 211 210 211
249 72 184 158 164 196 209 232 225 167 177 250 227 156 162 189 208 204 174 196 220 108 221 234 155 88 274 262 161 170 187 205 216 216 209 207 205 204 205 202 198 195 193 192 192 192 190 187 187 187 188 190 191 190 190 191 192 193 194 194 195 197 197 197 198 200 202 204 206 207 207 206 206 209 208 206 207 208 210 211 212 211 210 211 213 215
216 207 212 132 145 207 226 243 228 171 199 247 232 157 176 191 213 195 165 179 126 117 228 216 172 169 276 265 155 171 197 209 215 215 209 205 203 203 204 201 199 196 193 194 193 193 192 190 189 188 188 189 190 190 191 191 191 192 193 193 195 196 197 197 198 200 202 204 206 207 207 207 207 207 207 206 206 207 209 211 213 212 210 210 213 216
283 275 226 83 33 237 243 257 236 195 219 246 313 86 206 135 250 88 100 109 102 226 247 208 185 185 264 263 183 185 206 209 209 209 206 204 202 200 200 199 198 195 194 195 193 194 194 191 189 187 187 189 189 190 191 191 191 191 192 193 195 196 197 197 197 199 201 203 205 207 208 208 208 207 206 205 206 207 210 213 215 216 214 212 214 217
337 356 14 7 9 4 319 313 340 320 271 273 20 122 167 318 3 35 9 53 133 252 260 212 183 180 226 254 213 210 216 211 205 202 201 202 203 200 198 198 196 194 193 193 192 192 191 189 187 186 187 188 188 188 189 190 190 190 191 192 194 196 196 197 197 198 200 202 204 206 208 210 210 209 208 207 208 209 211 214 216 218 218 217 217 219
15 23 349 311 22 31 21 348 341 347 25 43 46 77 102 304 18 73 296 227 182 253 255 181 144 167 235 251 230 224 226 220 211 207 202 200 199 197 197 196 195 193 193 194 193 190 189 187 185 185 186 187 187 188 189 189 190 191 192 192 193 195 197 197 197 198 200 201 203 205 208 210 211 211 211 210 211 212 213 214 215 216 218 217 217 218
344 327 357 0 358 8 32 43 350 325 353 3 51 97 122 143 100 196 245 264 194 246 259 153 132 185 259 269 243 233 231 225 218 213 205 199 196 194 194 192 192 194 194 196 195 191 190 188 186 186 186 186 187 188 188 189 190 191 192 192 193 196 197 197 198 198 200 202 204 206 208 210 211 212 213 212 213 214 214 214 214 215 216 216 216 217
116 224 354 9 327 335 18 45 256 240 291 305 216 150 142 148 136 193 204 171 195 239 295 9 145 186 198 241 254 251 245 232 223 218 206 200 197 191 187 186 189 194 196 197 198 195 192 189 188 187 187 188 188 188 188 189 190 191 192 193 194 196 196 197 198 199 200 202 204 206 208 210 212 213 215 215 215 216 216 215 214 215 216 216 217 216
86 212 300 324 288 356 2 323 281 214 236 284 285 90 25 172 158 207 192 171 166 138 343 281 201 211 207 264 340 339 314 275 242 224 202 195 191 180 181 188 191 194 195 197 199 197 193 189 189 188 188 190 189 188 189 190 190 191 192 194 195 196 196 197 198 199 201 203 204 206 207 210 212 213 216 218 217 217 218 218 215 215 217 219 219 217
43 256 304 339 348 355 346 315 30 54 237 283 28 359 271 235 165 194 257 186 100 107 267 240 231 289 291 354 2 359 353 350 341 280 218 197 181 177 187 192 194 194 193 196 198 197 193 189 190 189 189 189 190 189 190 191 192 192 193 194 196 196 197 198 199 200 202 203 205 206 207 209 211 212 215 218 219 219 220 220 219 218 220 222 223 222
62 261 318 13 349 327 328 325 61 50 29 60 43 297 288 277 132 133 232 6 60 128 266 243 175 348 356 337 347 356 356 348 348 336 287 229 187 185 193 194 195 195 194 196 197 196 195 191 191 191 191 191 192 192 192 192 192 193 194 195 195 196 197 198 200 201 202 203 204 206 207 208 210 212 214 218 220 221 221 222 220 220 223 226 226 226
42 286 303 5 346 316 351 18 27 11 15 64 206 294 345 72 42 1 104 132 88 157 272 279 156 57 15 333 339 352 349 339 338 339 324 283 218 201 198 196 197 196 193 194 194 195 197 194 192 192 192 193 193 193 193 192 192 193 195 196 196 197 198 199 200 201 203 204 205 206 208 209 210 212 214 217 220 221 222 222 221 221 225 228 228 228
29 56 280 326 342 333 20 34 357 325 349 14 10 359 21 102 164 318 158 161 196 167 224 289 37 33 293 319 340 344 346 343 337 335 331 305 253 222 208 201 197 195 194 193 193 195 196 195 194 193 193 193 193 194 193 192 192 194 196 197 198 198 199 199 200 201 203 204 205 206 208 209 211 212 214 215 218 220 221 221 221 222 225 227 228 228
32 62 285 312 345 3 27 17 339 308 336 357 18 25 6 347 345 320 339 24 68 133 181 99 55 277 261 323 347 351 356 349 340 335 330 318 281 236 218 210 200 195 195 193 194 195 194 195 194 194 194 193 192 192 192 192 194 195 196 197 198 199 199 200 201 201 203 204 205 206 207 209 211 213 214 215 217 220 221 221 221 223 225 226 228 228
23 54 357 335 355 9 302 287 295 277 289 26 40 33 2 350 19 31 350 341 23 82 189 141 157 248 273 8 353 6 11 353 344 341 334 332 317 254 219 211 205 202 199 196 194 193 192 193 193 193 193 191 190 190 192 193 194 195 197 198 199 200 200 201 201 202 203 204 205 207 208 209 211 213 215 215 216 219 220 221 221 223 224 225 227 228
57 77 40 358 314 292 273 279 327 27 103 85 64 37 3 6 39 57 321 310 341 339 279 138 170 232 260 31 6 11 19 4 356 354 347 342 337 297 220 206 204 205 205 200 196 193 192 192 192 191 190 189 189 190 191 193 194 195 197 198 199 200 201 202 202 203 204 205 206 208 209 210 211 213 215 216 218 219 220 221 222 222 223 225 226 227
44 59 22 341 306 314 304 303 11 55 65 53 24 11 4 360 4 340 231 245 308 339 353 23 271 252 304 16 7 359 11 13 9 5 1 355 352 348 273 210 206 208 208 204 200 197 194 192 190 189 188 189 190 190 192 193 195 196 197 198 199 201 202 202 202 203 204 205 208 209 210 211 212 212 214 216 219 221 221 222 222 223 224 225 226 227
20 58 50 34 4 353 352 346 353 27 40 26 315 335 339 337 347 338 300 47 93 27 17 12 250 270 309 352 360 358 8 16 12 8 10 8 4 3 4 358 331 269 202 197 203 204 199 196 192 189 188 189 190 191 192 194 195 196 197 199 200 201 202 202 202 203 204 206 208 209 210 211 212 212 214 217 219 222 223 223 224 225 225 226 227 229
84 89 94 95 93 89 311 331 311 325 352 338 310 326 328 337 357 2 9 25 59 352 356 319 227 287 314 343 359 358 6 15 10 7 12 15 11 7 12 18 14 11 22 99 192 199 200 201 201 196 191 190 191 192 192 193 196 197 198 199 200 201 201 202 202 203 204 206 207 209 210 211 212 213 215 217 219 221 223 224 225 226 227 229 230 231
100 63 88 124 134 169 193 215 258 294 330 312 317 331 330 327 344 31 47 6 218 342 331 248 219 318 325 344 358 355 358 8 11 11 13 17 14 9 10 16 19 19 15 14 19 22 195 193 197 196 192 193 195 195 194 195 196 197 198 199 200 201 201 201 202 203 204 206 207 209 211 211 212 213 215 217 219 221 223 224 225 227 228 230 231 232
92 53 71 111 149 193 195 222 262 285 280 289 314 328 324 321 331 14 42 245 211 28 310 263 296 329 321 338 353 350 352 360 9 14 16 18 16 11 10 13 18 20 16 12 13 9 3 348 211 191 188 193 196 197 197 197 197 198 198 199 199 200 201 201 202 203 204 206 208 210 212 213 213 214 216 218 220 221 223 224 225 227 228 229 230 231
102 82 60 77 49 262 235 248 277 309 281 295 313 313 315 322 321 309 262 248 217 167 252 270 300 309 311 342 352 348 348 350 357 7 16 20 17 16 16 15 16 17 14 11 9 5 3 1 356 360 179 187 192 197 197 196 198 199 199 200 199 200 201 201 201 203 204 206 208 211 212 213 214 215 216 218 219 221 222 223 225 226 227 228 229 231
99 59 42 65 24 329 313 323 355 18 353 331 310 301 313 321 308 294 276 267 249 222 240 266 287 290 316 354 356 355 347 340 352 10 20 20 17 19 19 17 17 15 12 9 6 1 0 0 2 10 23 36 62 188 195 197 198 198 199 200 199 200 201 200 201 202 204 206 210 212 212 213 214 215 216 217 218 220 221 222 224 225 226 227 228 230
64 16 27 71 43 322 309 330 343 344 341 305 285 304 334 337 328 330 320 307 306 281 267 271 285 309 344 357 7 9 359 1 15 21 25 20 14 18 20 16 16 16 9 5 3 360 358 358 359 6 16 18 18 24 36 204 203 201 201 200 200 201 201 200 201 202 204 207 210 211 212 213 213 214 216 217 218 220 221 222 222 223 225 226 228 229
72 19 10 62 54 294 296 334 328 322 329 307 295 334 344 343 337 326 335 12 11 326 302 312 21 7 338 347 9 13 9 21 23 17 22 22 14 17 19 14 15 17 10 1 357 357 358 357 355 358 4 5 5 12 19 18 13 200 203 202 202 202 200 200 202 203 205 208 210 211 212 212 213 214 216 217 219 220 221 221 221 222 224 225 227 228
125 110 73 90 82 281 285 311 316 337 2 341 306 328 327 344 348 318 357 33 18 346 335 3 21 360 340 350 7 7 14 29 28 17 17 16 12 16 18 14 12 14 13 2 352 353 355 353 350 350 354 357 357 359 6 14 27 62 197 201 201 201 200 201 202 204 206 208 209 210 211 212 213 214 216 217 219 220 220 220 221 221 222 224 226 227
135 121 135 140 120 268 274 304 351 38 30 253 240 281 294 54 31 339 335 24 9 6 28 14 2 0 355 358 2 2 15 32 36 32 23 15 14 14 15 17 11 6 9 2 348 345 347 347 346 347 350 353 353 352 355 5 20 35 99 186 190 192 196 201 204 207 208 208 209 210 211 212 212 213 216 218 219 219 219 220 221 222 223 224 224 225
135 128 141 140 133 246 286 7 29 33 240 243 241 340 316 108 59 352 329 53 21 11 14 9 4 2 358 353 349 349 4 39 43 43 31 24 22 14 14 18 11 1 358 355 347 341 343 346 346 345 346 347 348 349 350 357 8 24 53 152 182 185 189 194 200 207 212 212 213 211 210 211 212 213 215 217 217 218 218 219 221 222 223 223 223 224
144 143 152 149 146 272 2 66 149 234 263 289 344 6 349 32 34 10 23 57 28 15 9 1 353 350 352 349 340 331 279 191 60 35 26 21 20 20 18 14 7 359 350 345 340 334 336 342 344 343 340 336 340 349 352 353 359 10 28 64 162 186 191 196 199 203 210 217 220 218 215 212 211 212 215 216 216 217 218 219 220 221 222 223 223 225
144 138 143 183 193 156 166 214 251 317 323 324 340 4 356 334 337 10 186 299 12 21 6 352 345 342 346 349 345 339 309 205 40 19 9 9 12 17 18 8 360 352 339 334 336 334 334 337 342 345 338 330 334 350 354 353 356 4 18 31 45 157 191 201 205 207 212 220 226 227 225 221 215 213 214 214 215 217 218 219 220 221 221 221 222 224
134 153 157 173 193 128 135 269 330 9 317 265 263 292 313 292 269 213 192 260 354 6 351 352 347 337 339 345 348 351 356 21 16 358 346 351 357 3 10 10 4 352 335 330 336 340 338 339 342 344 336 325 333 353 358 353 353 2 15 22 23 25 36 210 212 214 218 222 227 233 235 231 224 218 216 215 216 217 219 219 220 221 220 219 220 222
56 72 126 134 146 117 129 201 218 212 237 242 256 283 298 289 262 201 187 230 356 352 341 346 343 332 334 337 340 358 24 20 345 324 324 332 340 344 346 358 3 352 337 332 340 345 341 340 340 339 336 334 341 353 358 353 349 355 11 19 20 21 16 358 314 258 234 224 222 226 235 240 235 227 221 219 219 219 219 220 220 221 220 219 220 222
32 39 94 129 182 177 168 199 220 225 232 246 284 297 301 305 309 157 231 256 344 344 333 331 332 326 322 322 326 355 31 353 301 295 310 316 315 314 315 326 352 349 336 331 339 348 346 345 343 337 335 339 344 348 352 352 347 348 4 18 23 25 18 358 341 326 302 264 232 219 219 233 243 235 227 224 222 221 221 221 221 220 219 218 220 221
360 21 109 149 188 206 206 220 257 255 219 237 287 292 299 317 355 173 227 264 325 329 326 330 329 325 323 321 316 320 324 294 279 281 296 306 305 298 299 307 321 337 336 334 341 351 353 350 345 336 333 338 342 344 349 351 347 342 353 17 23 13 2 349 339 331 314 296 281 254 229 230 245 239 230 227 225 223 222 222 220 219 218 217 218 219
321 337 169 154 167 208 197 198 283 282 222 235 290 296 312 320 227 223 249 299 317 320 327 334 329 327 331 326 316 313 312 300 291 289 292 298 298 288 290 300 310 326 337 343 354 360 356 350 342 335 334 339 343 343 346 351 348 337 344 8 11 356 349 347 342 334 321 308 302 297 286 269 257 243 231 227 225 222 222 221 220 219 218 216 216 217
179 169 268 212 177 167 137 149 281 267 212 272 324 334 4 126 214 255 313 319 316 323 325 322 318 323 326 321 315 314 314 309 300 293 290 292 289 282 287 295 302 314 325 340 357 1 356 348 341 335 335 341 344 345 347 349 348 340 340 356 356 347 347 350 342 332 327 324 317 311 303 290 271 247 231 226 223 221 220 220 218 218 217 215 214 215
185 163 216 235 198 142 151 196 229 212 194 194 40 97 251 254 244 351 336 312 312 323 317 306 305 307 309 310 309 308 308 309 304 295 292 295 291 286 290 294 299 309 318 328 347 359 356 349 341 336 336 341 346 348 349 350 346 342 342 348 347 342 345 350 342 331 328 328 323 314 305 296 280 254 233 224 221 219 218 217 215 215 215 214 213 213
218 179 165 197 222 195 195 222 233 198 179 179 160 184 236 254 234 273 305 296 297 301 301 301 301 300 301 301 300 300 300 302 304 301 296 292 285 281 283 285 290 300 308 316 332 352 354 347 341 336 335 340 347 349 351 351 348 342 341 343 342 341 345 344 332 319 319 324 321 311 301 296 285 261 238 225 218 216 215 214 213 212 212 213 212 213
226 161 127 140 262 269 253 247 233 197 200 221 203 212 234 232 215 250 283 286 287 288 290 290 290 294 298 294 291 292 292 295 300 301 299 293 283 277 274 273 279 290 299 308 324 344 348 346 344 339 332 337 345 348 349 351 349 342 339 339 341 344 344 337 327 319 317 319 318 308 299 295 289 269 244 228 219 215 214 212 210 209 210 210 211 213
252 155 130 144 224 286 277 248 209 193 240 263 258 243 232 228 243 261 262 271 283 286 286 285 285 289 291 286 283 284 285 289 294 296 298 295 284 276 269 263 267 279 291 299 313 333 341 341 342 337 330 332 340 343 344 347 348 346 342 338 341 347 344 334 326 321 314 312 311 302 295 296 294 276 249 231 220 216 215 212 210 209 208 208 209 212
201 155 164 190 187 201 251 262 267 273 267 255 234 214 214 248 278 282 271 275 284 285 282 282 281 283 287 287 284 283 283 284 284 285 288 288 281 275 267 259 258 267 280 288 298 319 331 331 332 333 328 327 335 341 341 341 345 349 347 342 345 350 344 328 319 314 308 307 302 288 284 291 297 284 251 230 221 216 214 211 210 210 210 211 211 211
145 150 178 191 200 264 280 279 294 315 302 263 201 199 222 259 280 289 293 291 288 287 284 281 279 279 282 284 284 283 282 278 274 277 280 280 278 272 263 259 260 265 274 278 281 298 317 320 320 325 325 326 334 341 342 339 342 347 348 348 351 354 347 333 326 321 315 310 297 288 294 301 307 305 264 231 221 218 217 214 212 212 214 216 216 216
154 178 180 139 177 260 262 246 200 245 285 264 224 229 254 262 269 285 294 294 290 288 285 285 286 283 279 278 278 275 274 275 273 272 273 273 273 268 261 258 258 263 272 272 266 276 298 310 310 313 318 326 334 340 342 340 340 343 346 350 352 352 348 344 339 331 325 320 308 303 310 312 316 321 298 243 224 220 220 220 219 217 218 220 221 222
184 190 177 173 205 229 233 221 185 177 237 252 248 254 262 260 264 278 284 285 284 283 282 283 287 288 284 281 277 271 267 269 269 267 266 267 269 266 263 261 260 261 270 268 254 257 278 296 305 309 315 325 334 338 340 341 341 342 345 349 351 352 351 349 344 335 332 331 323 316 317 314 314 321 314 268 234 223 220 222 223 223 223 224 225 226